Weather History for Oxford, CT

Change the Weather History Date:

Monday, October 28, 2013

  Actual Average Record
Temperature  
Mean Temperature 44 °F -  
Max Temperature 57 °F 53 °F 71 °F (2010)
Min Temperature 30 °F 37 °F 28 °F (2005)
Degree Days  
Heating Degree Days 22    
Moisture  
Dew Point 27 °F    
Average Humidity 60    
Maximum Humidity 80    
Minimum Humidity 36    
Precipitation  
Precipitation 0.00 in - - ()
Sea Level Pressure  
Sea Level Pressure 30.20 in    
Wind  
Wind Speed 3 mph (NNW)    
Max Wind Speed 12 mph    
Max Gust Speed 21 mph    
Visibility 10 miles    
Events      
Averages and records for this station are not official NWS values.
T = Trace of Precipitation, MM = Missing Value Source: NWS Daily Summary

Daily Weather History Graph

Daily Weather History Graph

Search for Another Location

Airport:

Trip Planner

Search our weather history database for the weather conditions in past years. The results will help you decide how hot, cold, wet, or windy it might be!

Date:

Astronomy

Oct. 28, 2013 Rise Set
Actual Time 7:19 AM EDT 5:52 PM EDT
Civil Twilight 6:51 AM EDT 6:20 PM EDT
Nautical Twilight 6:18 AM EDT 6:53 PM EDT
Astronomical Twilight 5:46 AM EDT 7:25 PM EDT
Moon 1:05 AM EDT (10/28) 2:36 PM EDT (10/28)
Length of Visible Light 11h 29m
Length of Day
10h 32m
Waning Crescent, 34% of the Moon is Illuminated
Oct 28
Waning Crescent
Nov 3
New
Nov 10
First Quarter
Nov 17
Full
Nov 25
Last Quarter

Hourly Weather History & Observations

Time (EDT) Temp. Windchill Dew Point Humidity Pressure Visibility Wind Dir Wind Speed Gust Speed Precip Events Conditions
12:15 AM 35.6 °F - 24.8 °F 65% 30.11 in 10.0 mi Calm Calm - N/A   Clear
12:35 AM 35.6 °F - 24.8 °F 65% 30.11 in 10.0 mi Calm Calm - N/A   Clear
12:55 AM 35.6 °F - 24.8 °F 65% 30.12 in 10.0 mi Calm Calm - N/A   Clear
1:15 AM 33.8 °F - 24.8 °F 70% 30.12 in 10.0 mi Calm Calm - N/A   Clear
1:35 AM 33.8 °F - 24.8 °F 70% 30.12 in 10.0 mi Calm Calm - N/A   Clear
1:55 AM 33.8 °F - 24.8 °F 70% 30.12 in 10.0 mi Calm Calm - N/A   Clear
2:15 AM 33.8 °F - 24.8 °F 70% 30.13 in 10.0 mi Calm Calm - N/A   Clear
2:35 AM 39.2 °F 37.0 °F 28.4 °F 65% 30.13 in 10.0 mi West 3.5 mph - N/A   Clear
2:55 AM 39.2 °F - 28.4 °F 65% 30.13 in 10.0 mi Calm Calm - N/A   Clear
3:15 AM 37.4 °F - 26.6 °F 65% 30.12 in 10.0 mi Calm Calm - N/A   Clear
3:35 AM 35.6 °F - 26.6 °F 70% 30.12 in 10.0 mi Calm Calm - N/A   Clear
3:55 AM 33.8 °F - 24.8 °F 70% 30.12 in 10.0 mi Calm Calm - N/A   Clear
4:15 AM 30.2 °F - 23.0 °F 75% 30.12 in 10.0 mi Calm Calm - N/A   Clear
4:35 AM 32.0 °F - 24.8 °F 75% 30.13 in 10.0 mi Calm Calm - N/A   Clear
4:55 AM 30.2 °F - 24.8 °F 80% 30.13 in 10.0 mi Calm Calm - N/A   Clear
5:15 AM 33.8 °F - 26.6 °F 75% 30.14 in 10.0 mi Calm Calm - N/A   Clear
5:35 AM 33.8 °F - 24.8 °F 70% 30.15 in 10.0 mi Calm Calm - N/A   Clear
5:50 AM 33.8 °F - 24.8 °F 70% 30.15 in 10.0 mi Calm Calm - N/A   Clear
6:45 AM 30.2 °F 25.4 °F 24.8 °F 80% 30.15 in 10.0 mi SSW 4.6 mph - N/A   Clear
7:50 AM 35.6 °F 31.7 °F 26.6 °F 70% 30.17 in 10.0 mi West 4.6 mph - N/A   Clear
8:45 AM 39.2 °F 35.9 °F 28.4 °F 65% 30.20 in 10.0 mi WSW 4.6 mph - N/A   Clear
9:50 AM 46.4 °F 43.5 °F 30.2 °F 53% 30.22 in 10.0 mi WSW 5.8 mph - N/A   Clear
10:45 AM 48.2 °F - 30.2 °F 50% 30.22 in 10.0 mi WSW 5.8 mph - N/A   Clear
11:45 AM 53.6 °F - 32.0 °F 44% 30.21 in 10.0 mi WNW 11.5 mph 18.4 mph N/A   Partly Cloudy
12:45 PM 55.4 °F - 33.8 °F 44% 30.18 in 10.0 mi WNW 11.5 mph 20.7 mph N/A   Clear
1:45 PM 57.2 °F - 32.0 °F 38% 30.17 in 10.0 mi NW 9.2 mph 17.3 mph N/A   Partly Cloudy
3:45 PM 57.2 °F - 30.2 °F 36% 30.18 in 10.0 mi NW 10.4 mph 18.4 mph N/A   Partly Cloudy
4:45 PM 55.4 °F - 30.2 °F 38% 30.19 in 10.0 mi NNW 10.4 mph 18.4 mph N/A   Mostly Cloudy
5:45 PM 53.6 °F - 32.0 °F 44% 30.22 in 10.0 mi WSW 10.4 mph - N/A   Mostly Cloudy
6:45 PM 48.2 °F - 30.2 °F 50% 30.25 in 10.0 mi NNE 3.5 mph - N/A   Mostly Cloudy
7:45 PM 48.2 °F - 32.0 °F 54% 30.29 in 10.0 mi North 5.8 mph - N/A   Mostly Cloudy
9:15 PM 44.6 °F 39.2 °F 28.4 °F 53% 30.30 in 10.0 mi North 10.4 mph - N/A   Clear
9:35 PM 42.8 °F 37.5 °F 26.6 °F 53% 30.32 in 10.0 mi North 9.2 mph - N/A   Clear
9:55 PM 42.8 °F 36.6 °F 26.6 °F 53% 30.32 in 10.0 mi North 11.5 mph - N/A   Clear
10:15 PM 44.6 °F 38.8 °F 26.6 °F 49% 30.32 in 10.0 mi North 11.5 mph - N/A   Clear
10:35 PM 44.6 °F 38.8 °F 26.6 °F 49% 30.32 in 10.0 mi North 11.5 mph - N/A   Clear
10:55 PM 42.8 °F 37.0 °F 26.6 °F 53% 30.32 in 10.0 mi North 10.4 mph - N/A   Clear
11:15 PM 44.6 °F 40.2 °F 26.6 °F 49% 30.33 in 10.0 mi NE 8.1 mph - N/A   Clear
11:35 PM 42.8 °F 38.0 °F 26.6 °F 53% 30.33 in 10.0 mi NE 8.1 mph - N/A   Clear
11:55 PM 42.8 °F 37.5 °F 26.6 °F 53% 30.34 in 10.0 mi NE 9.2 mph - N/A   Clear